Location: Black Swamp Observatory
(41.3920°N, 84.1250°W)
Time: 02:32:56
(UTC-04:00)

Transit 4A - Pass Details

Date: 03 February 2022
Orbit: 863 x 981 km, 66.8° (Epoch: 27 May)

Event Time Altitude Azimuth Distance (km) Brightness Sun altitude
Exits shadow 06:39:35 - 235° (SW) 3,037 10.2 -12.8°
Reaches altitude 10° 06:40:53 10° 239° (WSW) 2,588 9.8 -12.5°
Maximum altitude 06:46:31 41° 309° (NW) 1,331 8.3 -11.5°
Drops below altitude 10° 06:52:22 10° 18° (NNE) 2,679 10.4 -10.4°
Sets 06:55:08 0° 26° (NNE) 3,645 11.2 -9.9°
